#timestamp,LO_Frequency,Hit,StdDev 
1635213615.1,286046996.5,P
1635213616.0,286046996.5,P
1635213635.8,286046997.3,N
1635213655.6,286046999.2,N
1635213675.5,286046999.6,N
1635213695.3,286046998.9,N
1635213715.1,286046996.9,N
1635213735.9,286046997.2,N
1635213755.7,286046995.4,Y
1635213775.5,286046996.7,P
1635213795.4,286046996.6,P
1635213815.2,286046994.9,P
1635213835.0,286046993.3,Y
1635213835.9,286046993.3,P
1635213855.8,286046999.2,N
1635213875.6,286046999.1,N
1635213895.4,286046999.5,N
1635213915.3,286046997.2,N
1635213935.1,286046999.2,N
1635213936.0,286046999.2,N
1635213955.8,286046996.5,N
1635213975.7,286046997.3,N
1635213995.5,286046997.9,N
1635214015.3,286046996.6,N
1635214035.2,286046996.7,N
1635214055.9,286046994.9,Y
1635214075.7,286046996.6,P
1635214095.6,286046998.4,P
1635214115.4,286046999.3,N
1635214135.2,286046999.6,N
1635214155.1,286046997.3,N
1635214156.0,286046997.3,N
1635214175.8,286046999.0,N
1635214195.6,286046998.8,N
1635214215.5,286046996.9,Y
1635214235.3,286047001.0,P
1635214255.1,286046998.8,N
1635214275.9,286046998.1,N
1635214295.7,286046998.7,N
1635214315.5,286046998.2,N
1635214335.4,286047000.5,N
1635214355.2,286047000.2,N
1635214375.0,286047000.7,N
1635214375.9,286047000.7,N
1635214395.8,286046999.0,N
1635214415.6,286046998.6,N
1635214435.4,286046999.2,N
1635214455.3,286046997.8,N
1635214475.1,286046998.0,N
1635214476.0,286046998.0,N
1635214495.8,286046997.8,N
1635214515.7,286046997.3,N
1635214535.5,286046995.5,Y
1635214555.3,286046996.7,P
1635214575.2,286046997.3,N
1635214595.9,286046997.9,N
1635214615.7,286046995.4,Y
1635214635.6,286047000.6,P
1635214655.4,286047002.1,N
1635214675.2,286046999.8,N
1635214695.1,286046999.7,N
1635214696.0,286046999.7,N
1635214715.8,286047001.1,N
1635214735.6,286046999.3,N
1635214755.5,286046999.2,N
1635214775.3,286046996.5,N
1635214795.1,286046997.2,N
1635214815.9,286046997.0,N
1635214835.7,286046997.0,N
1635214855.5,286046997.8,N
1635214875.4,286046997.6,N
1635214895.2,286046997.4,N
1635214915.0,286046996.5,N
1635214915.9,286046996.5,N
1635214935.8,286046997.0,N
1635214955.6,286046995.4,N
1635214975.4,286046995.0,N
1635214995.3,286046996.1,N
1635215015.1,286046997.5,N
1635215016.0,286046997.5,N
1635215035.8,286046995.1,N
1635215055.7,286046993.7,Y
1635215075.5,286046994.9,P
1635215095.3,286046997.7,N
1635215115.2,286046997.4,N
1635215135.9,286046996.9,N
1635215155.7,286046997.4,N
1635215175.6,286046997.5,N
1635215195.4,286046996.0,Y
1635215215.2,286046996.7,P
1635215235.1,286046995.0,P
1635215236.0,286046995.0,P
1635215255.8,286046995.0,Y
1635215275.6,286047000.4,P
1635215295.5,286047000.5,N
1635215315.3,286046998.1,N
1635215335.1,286047000.9,N
1635215355.9,286047001.2,N
1635215375.7,286046999.2,N
1635215395.5,286046998.8,N
1635215415.3,286046999.6,N
1635215435.2,286046996.5,N
1635215455.0,286046996.7,N
1635215455.9,286046996.7,N
1635215475.7,286046996.7,N
1635215495.6,286046998.5,N
1635215515.4,286046999.1,N
1635215535.2,286046997.6,N
1635215555.1,286046997.1,N
1635215556.0,286046997.1,N
1635215575.8,286046996.8,N
1635215595.6,286046997.7,N
1635215615.5,286046996.5,N
1635215635.3,286046998.8,N
1635215655.1,286046999.1,N
1635215675.9,286046999.4,N
1635215695.7,286046998.9,N
1635215715.5,286046996.6,N
1635215735.4,286046998.9,N
1635215755.2,286046999.0,N
1635215775.0,286046999.5,N
1635215775.9,286046999.5,N
1635215795.8,286046997.0,N
1635215815.6,286046998.6,N
1635215835.4,286046998.7,N
1635215855.3,286046998.5,N
1635215875.1,286046998.5,N
1635215895.8,286046997.2,N
1635215915.7,286046995.1,Y
1635215935.5,286046999.4,P
1635215955.3,286046999.5,N
1635215975.2,286046998.5,N
1635215995.0,286046999.4,N
1635215995.9,286046999.4,N
1635216015.7,286047000.8,N
1635216035.6,286046998.3,N
1635216055.4,286046999.4,N
1635216075.2,286046998.4,N
1635216095.1,286046999.5,N
1635216096.0,286046999.5,N
1635216115.8,286046999.2,N
1635216135.6,286046996.7,Y
1635216155.5,286046998.6,P
1635216175.3,286047000.0,N
1635216195.1,286047002.5,P
1635216215.9,286047001.2,N
1635216235.7,286047000.9,N
1635216255.5,286047000.8,N
1635216275.4,286046998.1,N
1635216295.2,286046998.9,N
1635216315.0,286046999.4,N
1635216315.9,286046999.4,N
1635216335.8,286046999.5,N
1635216355.6,286046998.3,N
1635216375.4,286046996.5,N
1635216395.3,286046998.9,N
1635216415.1,286046997.7,N
1635216435.8,286047001.2,N
1635216455.7,286047000.5,N
1635216475.5,286047002.4,N
1635216495.3,286047001.9,N
1635216515.2,286047002.1,N
1635216535.0,286047002.0,N
1635216535.9,286047002.0,N
1635216555.7,286047004.1,N
1635216575.6,286047001.5,N
1635216595.4,286047002.2,N
1635216615.2,286047001.8,N
1635216635.1,286047003.5,N
1635216636.0,286047003.5,N
1635216655.8,286047005.9,Y
1635216675.6,286047001.7,P
1635216695.5,286047003.2,P
1635216715.3,286047004.4,P
1635216735.1,286047001.8,N
1635216755.9,286047003.1,N
1635216775.7,286047005.2,Y
1635216795.5,286047003.5,P
1635216815.4,286047004.0,P
1635216835.2,286047001.4,N
1635216855.0,286047001.8,N
1635216855.9,286047001.8,N
1635216875.8,286047001.9,N
1635216895.6,286047002.0,N
1635216915.4,286047000.0,N
1635216935.3,286047004.1,Y
1635216955.1,286046998.1,P
1635216975.8,286046998.5,N
1635216995.7,286047000.2,N
1635217015.5,286047001.6,N
1635217035.3,286047000.5,N
1635217055.2,286047000.6,N
1635217075.0,286047000.1,N
1635217075.9,286047000.1,N
1635217095.7,286047001.0,N
1635217115.6,286046998.5,N
1635217135.4,286047000.3,N
1635217155.2,286047000.5,N
1635217175.1,286047002.4,N
1635217176.0,286047002.4,N
1635217195.8,286046998.4,N
